York, PA

4:02 AM EST on December 11, 2019 (GMT -0500)
York

Weather History for KTHV - October, 2019

Change the Weather History Date:

Saturday, October 12, 2019

  Actual Average Record
Temperature  
Mean Temperature 54 °F -  
Max Temperature 66 °F 0 °F 78 °F (2001)
Min Temperature 41 °F - 32 °F (2000)
Degree Days  
Heating Degree Days 12    
Growing Degree Days 4 (Base 50)    
Moisture  
Dew Point 45 °F    
Average Humidity 78    
Maximum Humidity 93    
Minimum Humidity 56    
Precipitation  
Precipitation 0.00 in - - ()
Sea Level Pressure  
Sea Level Pressure 30.02 in    
Wind  
Wind Speed 1 mph ()    
Max Wind Speed 7 mph    
Max Gust Speed -    
Visibility 9.9 miles    
Events Rain    
Averages and records for this station are not official NWS values.
T = Trace of Precipitation, MM = Missing Value Source: Averaged Metar Reports

Daily Weather History Graph

Daily Weather History Graph

Search for Another Location

Airport or City:

Astronomy

Oct. 12, 2019 Rise Set
Actual Time 7:14 AM EDT 6:32 PM EDT
Civil Twilight 6:47 AM EDT 6:59 PM EDT
Nautical Twilight 6:16 AM EDT 7:31 PM EDT
Astronomical Twilight 5:44 AM EDT 8:02 PM EDT
Moon 6:27 PM EDT (10/12) 5:49 AM EDT (10/12)
Length of Visible Light 12h 12m
Length of Day
11h 18m
Waxing Gibbous, 99% of the Moon is Illuminated
Oct 12
Waxing Gibbous
Oct 13
Full
Oct 21
Last Quarter
Oct 27
New
Nov 4
First Quarter

Hourly Weather History & Observations

Time (EDT) Temp. Windchill Dew Point Humidity Pressure Visibility Wind Dir Wind Speed Gust Speed Precip Events Conditions
12:53 AM 43.0 °F - 41.0 °F 93% 30.05 in 10.0 mi Calm Calm - N/A   Clear
1:53 AM 45.0 °F - 42.1 °F 90% 30.05 in 10.0 mi Calm Calm - N/A   Clear
2:53 AM 42.1 °F - 39.0 °F 89% 30.03 in 10.0 mi Calm Calm - N/A   Clear
3:53 AM 41.0 °F - 39.0 °F 93% 30.02 in 10.0 mi Calm Calm - N/A   Clear
4:53 AM 42.1 °F - 39.0 °F 89% 30.02 in 10.0 mi Calm Calm - N/A   Clear
5:53 AM 42.1 °F - 39.0 °F 89% 30.01 in 10.0 mi Calm Calm - N/A   Clear
6:53 AM 43.0 °F 41.3 °F 39.9 °F 89% 30.02 in 10.0 mi West 3.5 mph - N/A   Clear
7:53 AM 45.0 °F - 42.1 °F 90% 30.01 in 10.0 mi Calm Calm - N/A   Scattered Clouds
8:53 AM 48.0 °F - 45.0 °F 89% 30.02 in 10.0 mi Calm Calm - N/A   Overcast
9:53 AM 52.0 °F - 46.9 °F 83% 30.02 in 10.0 mi Calm Calm - N/A   Overcast
10:53 AM 55.0 °F - 46.9 °F 74% 30.01 in 8.0 mi Calm Calm - N/A   Overcast
11:53 AM 60.1 °F - 48.0 °F 64% 30.00 in 10.0 mi Variable 3.5 mph - N/A   Mostly Cloudy
12:53 PM 63.0 °F - 48.9 °F 60% 29.99 in 10.0 mi Calm Calm - 0.00 in Rain Light Rain
1:53 PM 63.0 °F - 50.0 °F 63% 29.99 in 10.0 mi WNW 6.9 mph - 0.00 in   Overcast
2:53 PM 64.9 °F - 48.9 °F 56% 29.98 in 10.0 mi West 5.8 mph - N/A   Overcast
3:53 PM 64.9 °F - 48.9 °F 56% 29.98 in 10.0 mi Variable 4.6 mph - N/A   Mostly Cloudy
4:53 PM 66.0 °F - 50.0 °F 56% 29.97 in 10.0 mi Calm Calm - N/A   Mostly Cloudy
5:53 PM 64.9 °F - 50.0 °F 58% 29.99 in 10.0 mi WNW 3.5 mph - N/A   Partly Cloudy
6:53 PM 55.9 °F - 48.9 °F 77% 30.01 in 10.0 mi Calm Calm - N/A   Partly Cloudy
7:53 PM 51.1 °F - 46.9 °F 86% 30.03 in 10.0 mi WNW 3.5 mph - N/A   Partly Cloudy
8:53 PM 53.1 °F - 46.9 °F 80% 30.05 in 10.0 mi Calm Calm - N/A   Clear
9:53 PM 46.9 °F - 44.1 °F 90% 30.06 in 10.0 mi NNW 3.5 mph - N/A   Clear
10:53 PM 46.9 °F - 41.0 °F 80% 30.06 in 10.0 mi NW 6.9 mph - N/A   Clear
11:53 PM 46.9 °F - 39.0 °F 74% 30.07 in 10.0 mi WNW 3.5 mph - N/A   Clear